Location: Clinton NY
(43.0598°N, 75.3602°W)
Time: 04:58:29
(UTC-05:00)

ISS - All Passes

Search period start: 11 December 2016 00:00
Search period end: 21 December 2016 00:00
Orbit: 401 x 409 km, 51.6° (Epoch: 11 December)

Date Brightness Start Highest point End Pass type
(mag) Time Alt. Az. Time Alt. Az. Time Alt. Az.
11 Dec - 14:01:54 10° SW 14:05:03 45° SE 14:08:13 10° ENE daylight
11 Dec - 15:38:39 10° W 15:41:39 31° NNW 15:44:39 10° NE daylight
11 Dec - 17:16:29 10° NW 17:18:52 18° N 17:21:15 10° NE visible
11 Dec - 18:53:12 10° NW 18:56:08 28° NNE 18:59:02 10° E visible
11 Dec - 20:29:33 10° WNW 20:32:49 58° SW 20:36:03 10° SE night (unlit)
12 Dec - 13:10:29 10° SSW 13:13:13 25° SE 13:15:58 10° E daylight
12 Dec - 14:46:23 10° WSW 14:49:33 46° NNW 14:52:45 10° NE daylight
12 Dec - 16:24:10 10° NW 16:26:39 19° N 16:29:07 10° NE daylight
12 Dec - 18:01:18 10° NW 18:03:58 22° NNE 18:06:38 10° ENE visible
12 Dec - 19:37:33 10° NW 19:40:52 78° NNE 19:44:10 10° ESE visible
12 Dec - 21:15:12 10° W 21:16:57 14° SW 21:18:43 10° SSW night (unlit)
13 Dec - 12:19:42 10° SSE 12:21:26 14° SE 12:23:11 10° E daylight
13 Dec - 13:54:15 10° WSW 13:57:31 77° NNW 14:00:50 10° NE daylight
13 Dec - 15:31:46 10° WNW 15:34:25 22° NNW 15:37:06 10° NE daylight
13 Dec - 17:09:16 10° NW 17:11:45 19° N 17:14:14 10° NE visible
13 Dec - 18:45:37 10° NW 18:48:49 46° NNE 18:52:02 10° ESE visible
13 Dec - 20:22:25 10° W 20:25:10 25° SW 20:27:56 10° SSE night (unlit)
14 Dec - 13:02:20 10° SW 13:05:34 58° SE 13:08:48 10° ENE daylight
14 Dec - 14:39:21 10° W 14:42:14 28° NNW 14:45:09 10° NE daylight
14 Dec - 16:17:07 10° NW 16:19:30 18° N 16:21:53 10° NE daylight
14 Dec - 17:53:42 10° NW 17:56:43 31° NNE 17:59:43 10° E visible
14 Dec - 19:30:07 10° WNW 19:33:18 45° SW 19:36:29 10° SE visible
15 Dec - 12:10:44 10° SSW 12:13:39 31° SE 12:16:36 10° ENE daylight
15 Dec - 13:46:59 10° W 13:50:05 39° NNW 13:53:13 10° NE daylight
15 Dec - 15:24:49 10° NW 15:27:14 18° N 15:29:39 10° NE daylight
15 Dec - 17:01:46 10° NW 17:04:32 24° NNE 17:07:18 10° ENE visible
15 Dec - 18:38:03 10° WNW 18:41:21 85° SSW 18:44:39 10° SE visible
15 Dec - 20:16:30 10° WSW 20:17:20 11° SW 20:18:11 10° SW night (unlit)
16 Dec - 11:19:35 10° S 11:21:48 17° SE 11:24:03 10° E daylight
16 Dec - 12:54:45 10° WSW 12:58:00 62° NNW 13:01:15 10° NE daylight
16 Dec - 14:32:24 10° WNW 14:34:58 21° N 14:37:33 10° NE daylight
16 Dec - 16:09:45 10° NW 16:12:17 20° N 16:14:50 10° ENE daylight
16 Dec - 17:46:02 10° NW 17:49:18 56° NNE 17:52:33 10° ESE visible
16 Dec - 19:23:05 10° W 19:25:34 20° SW 19:28:01 10° S visible
17 Dec - 12:02:42 10° SW 12:05:58 75° SE 12:09:14 10° ENE daylight
17 Dec - 13:39:56 10° WNW 13:42:43 25° NNW 13:45:32 10° NE daylight
17 Dec - 15:17:37 10° NW 15:20:01 18° N 15:22:24 10° NE daylight
17 Dec - 16:54:05 10° NW 16:57:11 36° NNE 17:00:16 10° E visible
17 Dec - 18:30:37 10° WNW 18:33:40 35° SW 18:36:43 10° SSE visible
18 Dec - 11:10:55 10° SSW 11:13:59 39° SE 11:17:05 10° ENE daylight
18 Dec - 12:47:29 10° W 12:50:31 33° NNW 12:53:34 10° NE daylight
18 Dec - 14:25:20 10° NW 14:27:43 18° N 14:30:05 10° NE daylight
18 Dec - 16:02:08 10° NW 16:04:59 26° NNE 16:07:50 10° ENE daylight
18 Dec - 17:38:25 10° WNW 17:41:42 67° SW 17:44:59 10° SE visible
19 Dec - 10:19:31 10° S 10:22:05 21° SE 10:24:39 10° E daylight
19 Dec - 11:55:10 10° WSW 11:58:22 51° NNW 12:01:35 10° NE daylight
19 Dec - 13:32:55 10° WNW 13:35:24 19° N 13:37:54 10° NE daylight
19 Dec - 15:10:06 10° NW 15:12:43 21° NNE 15:15:20 10° ENE daylight
19 Dec - 16:46:22 10° NW 16:49:39 68° NNE 16:52:56 10° ESE daylight
19 Dec - 18:23:43 10° W 18:25:48 16° SW 18:27:53 10° S visible
20 Dec - 09:29:00 10° SSE 09:30:15 12° SE 09:31:29 10° ESE daylight
20 Dec - 11:03:00 10° WSW 11:06:15 88° NW 11:09:33 10° ENE daylight
20 Dec - 12:40:24 10° WNW 12:43:07 23° NNW 12:45:49 10° NE daylight
20 Dec - 14:17:59 10° NW 14:20:24 19° N 14:22:50 10° NE daylight
20 Dec - 15:54:22 10° NW 15:57:32 41° NNE 16:00:41 10° E daylight
20 Dec - 17:31:01 10° WNW 17:33:55 28° SW 17:36:48 10° SSE visible
